Time,TemperatureF,DewpointF,PressureIn,WindDirection,WindDirectionDegrees,WindSpeedMPH,WindSpeedGustMPH,Humidity,HourlyPrecipIn,Conditions,Clouds,dailyrainin,SoftwareType,DateUTC
2013-09-26 13:41:00,99.0,93.4,29.99,SSE,157,15.7,15.7,84,0.00,,,0.00,WUHU21623XXSP,2013-09-26 18:41:00,
2013-09-26 15:12:00,99.7,93.6,29.97,South,180,17.4,20.6,83,0.00,,,0.00,WUHU21623XXSP,2013-09-26 20:12:00,
2013-09-26 15:17:00,100.0,94.0,29.96,South,180,20.1,20.6,83,0.00,,,0.00,WUHU21623XXSP,2013-09-26 20:17:00,
2013-09-26 15:22:00,100.0,94.0,29.96,South,180,20.1,20.1,83,0.00,,,0.00,WUHU21623XXSP,2013-09-26 20:22:00,
2013-09-26 15:35:00,97.5,92.0,29.96,SSW,202,0.7,22.1,82,0.00,,,0.00,WUHU21623XXSP,2013-09-26 20:35:00,
2013-09-26 15:40:00,95.9,89.9,29.96,West,270,9.8,22.1,83,0.00,,,0.00,WUHU21623XXSP,2013-09-26 20:40:00,
2013-09-26 15:45:00,95.4,89.4,29.96,SSW,202,17.4,18.6,83,0.00,,,0.00,WUHU21623XXSP,2013-09-26 20:45:00,
2013-09-26 15:50:00,95.9,89.9,29.96,WSW,247,8.1,25.3,83,0.00,,,0.00,WUHU21623XXSP,2013-09-26 20:50:00,
2013-09-26 15:55:00,96.1,90.4,29.96,WSW,247,11.2,25.3,84,0.00,,,0.00,WUHU21623XXSP,2013-09-26 20:55:00,
2013-09-26 16:00:00,96.1,90.4,29.96,WSW,247,18.1,19.5,84,0.00,,,0.00,WUHU21623XXSP,2013-09-26 21:00:00,
2013-09-26 16:05:00,96.8,90.4,29.96,SSW,202,19.0,19.7,82,0.00,,,0.00,WUHU21623XXSP,2013-09-26 21:05:00,
2013-09-26 16:11:00,96.4,90.8,29.95,South,180,19.7,19.7,84,0.00,,,0.00,WUHU21623XXSP,2013-09-26 21:11:00,
2013-09-26 16:16:00,96.4,90.8,29.96,WSW,247,17.2,19.7,84,0.00,,,0.00,WUHU21623XXSP,2013-09-26 21:16:00,
2013-09-26 16:21:00,95.5,89.9,29.96,WSW,247,19.7,19.7,84,0.00,,,0.00,WUHU21623XXSP,2013-09-26 21:21:00,
2013-09-26 16:26:00,96.1,91.2,29.96,WSW,247,21.5,21.5,86,0.00,,,0.00,WUHU21623XXSP,2013-09-26 21:26:00,
2013-09-26 16:31:00,95.7,90.1,29.96,WSW,247,18.8,21.5,84,0.00,,,0.00,WUHU21623XXSP,2013-09-26 21:31:00,
2013-09-26 16:36:00,95.2,90.3,29.96,WSW,247,16.8,19.2,86,0.00,,,0.00,WUHU21623XXSP,2013-09-26 21:36:00,
2013-09-26 16:41:00,95.2,90.7,29.96,WSW,247,11.0,19.9,87,0.00,,,0.00,WUHU21623XXSP,2013-09-26 21:41:00,
2013-09-26 16:46:00,94.1,88.9,29.96,WSW,247,14.8,19.9,85,0.00,,,0.00,WUHU21623XXSP,2013-09-26 21:46:00,
2013-09-26 16:51:00,93.0,88.6,29.96,WSW,247,10.5,19.0,87,0.00,,,0.00,WUHU21623XXSP,2013-09-26 21:51:00,
2013-09-26 16:56:00,92.5,88.5,29.96,WSW,247,15.9,20.1,88,0.00,,,0.00,WUHU21623XXSP,2013-09-26 21:56:00,
2013-09-26 17:01:00,92.3,88.3,29.96,WSW,247,15.4,20.1,88,0.00,,,0.00,WUHU21623XXSP,2013-09-26 22:01:00,
2013-09-26 17:06:00,91.9,88.3,29.96,WSW,247,16.3,23.7,89,0.00,,,0.00,WUHU21623XXSP,2013-09-26 22:06:00,
2013-09-26 17:11:00,91.6,88.0,29.96,WSW,247,23.7,23.7,89,0.00,,,0.00,WUHU21623XXSP,2013-09-26 22:11:00,
2013-09-26 17:16:00,90.3,86.7,29.96,WSW,247,17.9,23.7,89,0.00,,,0.00,WUHU21623XXSP,2013-09-26 22:16:00,
2013-09-26 17:21:00,88.9,85.6,29.96,WSW,247,11.4,17.9,90,0.00,,,0.00,WUHU21623XXSP,2013-09-26 22:21:00,
2013-09-26 17:26:00,87.3,84.0,29.96,WSW,247,14.8,17.2,90,0.00,,,0.00,WUHU21623XXSP,2013-09-26 22:26:00,
2013-09-26 17:31:00,85.6,82.7,29.96,SSW,202,18.8,18.8,91,0.00,,,0.00,WUHU21623XXSP,2013-09-26 22:31:00,
2013-09-26 17:36:00,84.7,82.1,29.96,SSW,202,19.0,19.0,92,0.00,,,0.00,WUHU21623XXSP,2013-09-26 22:36:00,
2013-09-26 17:41:00,83.5,80.6,29.96,SSE,157,0.0,19.0,91,0.00,,,0.00,WUHU21623XXSP,2013-09-26 22:41:00,
2013-09-26 17:46:00,82.9,80.3,29.96,South,180,0.0,11.0,92,0.00,,,0.00,WUHU21623XXSP,2013-09-26 22:46:00,
2013-09-26 17:51:00,82.2,79.3,29.96,SSE,157,0.0,9.6,91,0.00,,,0.00,WUHU21623XXSP,2013-09-26 22:51:00,
2013-09-26 17:56:00,81.5,78.6,29.96,South,180,0.0,0.0,91,0.00,,,0.00,WUHU21623XXSP,2013-09-26 22:56:00,
2013-09-26 18:01:00,81.3,78.7,29.96,South,180,0.0,0.0,92,0.00,,,0.00,WUHU21623XXSP,2013-09-26 23:01:00,
2013-09-26 18:06:00,81.0,78.4,29.96,SSW,202,0.0,0.0,92,0.00,,,0.00,WUHU21623XXSP,2013-09-26 23:06:00,
2013-09-26 18:11:00,80.4,77.8,29.97,South,180,0.0,0.0,92,0.00,,,0.00,WUHU21623XXSP,2013-09-26 23:11:00,
2013-09-26 18:16:00,80.1,77.5,29.96,SSW,202,0.0,0.0,92,0.00,,,0.00,WUHU21623XXSP,2013-09-26 23:16:00,
2013-09-26 18:21:00,79.5,77.0,29.96,South,180,0.0,0.0,92,0.00,,,0.00,WUHU21623XXSP,2013-09-26 23:21:00,
2013-09-26 18:26:00,79.0,76.5,29.96,South,180,0.0,0.0,92,0.00,,,0.00,WUHU21623XXSP,2013-09-26 23:26:00,
2013-09-26 18:31:00,78.6,76.5,29.96,South,180,0.0,0.0,93,0.00,,,0.00,WUHU21623XXSP,2013-09-26 23:31:00,
2013-09-26 18:36:00,78.4,76.0,29.97,South,180,0.0,0.0,92,0.00,,,0.00,WUHU21623XXSP,2013-09-26 23:36:00,
2013-09-26 18:41:00,78.1,75.9,29.96,South,180,0.0,0.0,93,0.00,,,0.00,WUHU21623XXSP,2013-09-26 23:41:00,
2013-09-26 18:46:00,77.7,75.6,29.96,South,180,0.0,0.0,93,0.00,,,0.00,WUHU21623XXSP,2013-09-26 23:46:00,
2013-09-26 18:51:00,77.5,75.4,29.96,SSW,202,0.0,0.0,93,0.00,,,0.00,WUHU21623XXSP,2013-09-26 23:51:00,
2013-09-26 18:56:00,77.2,75.3,29.96,South,180,0.0,0.0,94,0.00,,,0.00,WUHU21623XXSP,2013-09-26 23:56:00,
2013-09-26 19:01:00,76.8,74.7,29.97,South,180,0.0,0.0,93,0.00,,,0.00,WUHU21623XXSP,2013-09-27 00:01:00,
2013-09-26 19:06:00,76.6,74.7,29.97,South,180,0.0,0.0,93,0.00,,,0.00,WUHU21623XXSP,2013-09-27 00:06:00,
2013-09-26 19:11:00,76.1,74.3,29.97,South,180,0.0,0.0,94,0.00,,,0.00,WUHU21623XXSP,2013-09-27 00:11:00,
2013-09-26 19:16:00,75.9,74.1,29.97,South,180,0.0,0.0,94,0.00,,,0.00,WUHU21623XXSP,2013-09-27 00:16:00,
2013-09-26 19:21:00,75.4,73.5,29.97,South,180,0.0,0.0,94,0.00,,,0.00,WUHU21623XXSP,2013-09-27 00:21:00,
2013-09-26 19:26:00,74.8,73.0,29.97,South,180,0.0,0.0,94,0.00,,,0.00,WUHU21623XXSP,2013-09-27 00:26:00,
2013-09-26 19:31:00,74.3,72.5,29.97,South,180,0.0,0.0,94,0.00,,,0.00,WUHU21623XXSP,2013-09-27 00:31:00,
2013-09-26 19:36:00,73.9,72.4,29.97,South,180,0.0,0.0,95,0.00,,,0.00,WUHU21623XXSP,2013-09-27 00:36:00,
2013-09-26 19:41:00,73.2,71.4,29.96,South,180,0.0,0.0,94,0.00,,,0.00,WUHU21623XXSP,2013-09-27 00:41:00,
2013-09-26 19:46:00,73.0,71.2,29.97,South,180,0.0,0.0,94,0.00,,,0.00,WUHU21623XXSP,2013-09-27 00:46:00,
2013-09-26 19:51:00,72.7,70.8,29.97,South,180,0.0,0.0,94,0.00,,,0.00,WUHU21623XXSP,2013-09-27 00:51:00,
2013-09-26 19:56:00,72.7,70.8,29.97,SSW,202,0.0,0.0,94,0.00,,,0.00,WUHU21623XXSP,2013-09-27 00:56:00,
2013-09-26 20:01:00,72.7,70.8,29.97,SSW,202,0.0,0.0,94,0.00,,,0.00,WUHU21623XXSP,2013-09-27 01:01:00,
2013-09-26 20:06:00,72.9,71.0,29.97,SSW,202,0.0,0.0,94,0.00,,,0.00,WUHU21623XXSP,2013-09-27 01:06:00,
2013-09-26 20:11:00,72.7,70.8,29.98,SSW,202,0.0,0.0,94,0.00,,,0.00,WUHU21623XXSP,2013-09-27 01:11:00,
2013-09-26 20:16:00,72.5,70.6,29.98,SSW,202,0.0,0.0,94,0.00,,,0.00,WUHU21623XXSP,2013-09-27 01:16:00,
2013-09-26 20:21:00,72.5,70.6,29.98,SSW,202,0.0,0.0,94,0.00,,,0.00,WUHU21623XXSP,2013-09-27 01:21:00,